User: anonymous   Login
Location: Ballingbuur
(53.0000°N, 5.7667°E)
Time: 07:42:12
(UTC+00:00)
Language:

COSMOS 2251 DEB - Orbit

View from above orbital plane
View from above orbital plane
View from above satellite
View from above satellite

Ground track
Ground track

The orbit data is extracted from the following two-line orbital elements,

1 37295U 93036BJK 21166.42394028  .00000295  00000-0  75835-4 0  9993
2 37295  74.0085 168.4749 0054383  27.6120 332.7912 14.53803414583851
Epoch (UTC): 15 June 2021 10:10:28
Eccentricity: 0.0054383
inclination: 74.0085°
perigee height: 674 km
apogee height: 752 km
right ascension of ascending node: 168.4749°
argument of perigee: 27.6120°
revolutions per day: 14.53803414
mean anomaly at epoch: 332.7912°
orbit number at epoch: 58385

The dashed part of the orbit path shows where the satellite is in the earth's shadow,  

DLR